owner,sensor,date,latitude,longitude,vertical_datum,wind_speed,wind_to_direction,wind_speed_of_gust,qcFlag 
COMPS,ioos:station:USF.COMPS:C12:1,2013-09-03T21:29:00Z,27.4980,-83.7220,3.0,1.0,130.0,-9999.0,'1111122,1111122,1111122' 
COMPS,ioos:station:USF.COMPS:C12:1,2013-09-03T22:29:00Z,27.4980,-83.7220,3.0,1.0,210.0,-9999.0,'1111122,1111122,1111122' 
COMPS,ioos:station:USF.COMPS:C12:1,2013-09-03T23:29:00Z,27.4980,-83.7220,3.0,2.0,170.0,-9999.0,'1111122,1111122,1111122' 
COMPS,ioos:station:USF.COMPS:C12:1,2013-09-04T00:29:00Z,27.4980,-83.7220,3.0,1.0,200.0,-9999.0,'1111122,1111122,1111122' 
COMPS,ioos:station:USF.COMPS:C12:1,2013-09-04T01:29:00Z,27.4980,-83.7220,3.0,1.0,170.0,-9999.0,'1111122,1111122,1111122' 
COMPS,ioos:station:USF.COMPS:C12:1,2013-09-04T02:29:00Z,27.4980,-83.7220,3.0,2.0,200.0,-9999.0,'1111122,1111122,1111122' 
COMPS,ioos:station:USF.COMPS:C12:1,2013-09-04T03:29:00Z,27.4980,-83.7220,3.0,1.0,190.0,-9999.0,'1111122,1111122,1111122' 
COMPS,ioos:station:USF.COMPS:C12:1,2013-09-04T04:29:00Z,27.4980,-83.7220,3.0,1.0,60.0,-9999.0,'1111122,1111122,1111122' 
COMPS,ioos:station:USF.COMPS:C12:1,2013-09-04T05:29:00Z,27.4980,-83.7220,3.0,2.0,60.0,-9999.0,'1111122,1111122,1111122' 
COMPS,ioos:station:USF.COMPS:C12:1,2013-09-04T06:29:00Z,27.4980,-83.7220,3.0,2.0,100.0,-9999.0,'1111122,1111122,1111122' 
COMPS,ioos:station:USF.COMPS:C12:1,2013-09-04T07:29:00Z,27.4980,-83.7220,3.0,2.0,60.0,-9999.0,'1111122,1111122,1111122' 
COMPS,ioos:station:USF.COMPS:C12:1,2013-09-04T08:29:00Z,27.4980,-83.7220,3.0,2.0,60.0,-9999.0,'1111122,1111122,1111122' 
COMPS,ioos:station:USF.COMPS:C12:1,2013-09-04T09:29:00Z,27.4980,-83.7220,3.0,3.0,60.0,-9999.0,'1111122,1111122,1111122' 
COMPS,ioos:station:USF.COMPS:C12:1,2013-09-04T10:29:00Z,27.4980,-83.7220,3.0,3.0,50.0,-9999.0,'1111122,1111122,1111122' 
COMPS,ioos:station:USF.COMPS:C12:1,2013-09-04T11:29:00Z,27.4980,-83.7220,3.0,4.0,50.0,-9999.0,'1111122,1111122,1111122' 
COMPS,ioos:station:USF.COMPS:C12:1,2013-09-04T12:29:00Z,27.4980,-83.7220,3.0,4.0,60.0,-9999.0,'1111122,1111122,1111122' 
COMPS,ioos:station:USF.COMPS:C12:1,2013-09-04T13:29:00Z,27.4980,-83.7220,3.0,5.0,60.0,-9999.0,'1111122,1111122,1111122' 
COMPS,ioos:station:USF.COMPS:C12:1,2013-09-04T14:29:00Z,27.4980,-83.7220,3.0,5.0,90.0,-9999.0,'1111122,1111122,1111122' 
COMPS,ioos:station:USF.COMPS:C12:1,2013-09-04T15:29:00Z,27.4980,-83.7220,3.0,2.0,10.0,-9999.0,'1111122,1111122,1111122' 
COMPS,ioos:station:USF.COMPS:C12:1,2013-09-04T16:29:00Z,27.4980,-83.7220,3.0,6.0,100.0,-9999.0,'1111122,1111122,1111122' 
COMPS,ioos:station:USF.COMPS:C12:1,2013-09-04T17:29:00Z,27.4980,-83.7220,3.0,6.0,100.0,-9999.0,'1111122,1111122,1111122' 
COMPS,ioos:station:USF.COMPS:C12:1,2013-09-04T18:29:00Z,27.4980,-83.7220,3.0,4.0,100.0,-9999.0,'1111122,1111122,1111122' 
COMPS,ioos:station:USF.COMPS:C12:1,2013-09-04T19:29:00Z,27.4980,-83.7220,3.0,4.0,110.0,-9999.0,'1111122,1111122,1111122' 
COMPS,ioos:station:USF.COMPS:C12:1,2013-09-04T20:29:00Z,27.4980,-83.7220,3.0,3.0,110.0,-9999.0,'1111122,1111122,1111122' 
COMPS,ioos:station:USF.COMPS:C12:1,2013-09-04T21:29:00Z,27.4980,-83.7220,3.0,3.0,110.0,-9999.0,'1111122,1111122,1111122' 
COMPS,ioos:station:USF.COMPS:C12:1,2013-09-04T22:29:00Z,27.4980,-83.7220,3.0,2.0,110.0,-9999.0,'1111122,1111122,1111122' 
COMPS,ioos:station:USF.COMPS:C12:1,2013-09-04T23:29:00Z,27.4980,-83.7220,3.0,0.0,-9999.0,-9999.0,'1114422,1111122,1111122' 
COMPS,ioos:station:USF.COMPS:C12:1,2013-09-05T00:29:00Z,27.4980,-83.7220,3.0,3.0,40.0,-9999.0,'1111122,1111122,1111122' 
COMPS,ioos:station:USF.COMPS:C12:1,2013-09-05T01:29:00Z,27.4980,-83.7220,3.0,7.0,70.0,-9999.0,'1111122,1111122,1111122' 
COMPS,ioos:station:USF.COMPS:C12:1,2013-09-05T02:29:00Z,27.4980,-83.7220,3.0,6.0,90.0,-9999.0,'1111122,1111122,1111122' 
COMPS,ioos:station:USF.COMPS:C12:1,2013-09-05T03:29:00Z,27.4980,-83.7220,3.0,5.0,90.0,-9999.0,'1111122,1111122,1111122' 
COMPS,ioos:station:USF.COMPS:C12:1,2013-09-05T04:29:00Z,27.4980,-83.7220,3.0,5.0,100.0,-9999.0,'1111122,1111122,1111122' 
COMPS,ioos:station:USF.COMPS:C12:1,2013-09-05T05:29:00Z,27.4980,-83.7220,3.0,5.0,110.0,-9999.0,'1111122,1111122,1111122' 
COMPS,ioos:station:USF.COMPS:C12:1,2013-09-05T06:29:00Z,27.4980,-83.7220,3.0,6.0,90.0,-9999.0,'1111122,1111122,1111122' 
COMPS,ioos:station:USF.COMPS:C12:1,2013-09-05T07:29:00Z,27.4980,-83.7220,3.0,7.0,90.0,-9999.0,'1111122,1111122,1111122' 
COMPS,ioos:station:USF.COMPS:C12:1,2013-09-05T08:29:00Z,27.4980,-83.7220,3.0,7.0,90.0,-9999.0,'1111122,1111122,1111122' 
COMPS,ioos:station:USF.COMPS:C12:1,2013-09-05T09:29:00Z,27.4980,-83.7220,3.0,5.0,100.0,-9999.0,'1111122,1111122,1111122' 
COMPS,ioos:station:USF.COMPS:C12:1,2013-09-05T10:29:00Z,27.4980,-83.7220,3.0,6.0,110.0,-9999.0,'1111122,1111122,1111122' 
COMPS,ioos:station:USF.COMPS:C12:1,2013-09-05T11:29:00Z,27.4980,-83.7220,3.0,5.0,110.0,-9999.0,'1111122,1111122,1111122' 
COMPS,ioos:station:USF.COMPS:C12:1,2013-09-05T12:29:00Z,27.4980,-83.7220,3.0,5.0,100.0,-9999.0,'1111122,1111122,1111122' 
COMPS,ioos:station:USF.COMPS:C12:1,2013-09-05T13:29:00Z,27.4980,-83.7220,3.0,6.0,90.0,-9999.0,'1111122,1111122,1111122' 
COMPS,ioos:station:USF.COMPS:C12:1,2013-09-05T14:29:00Z,27.4980,-83.7220,3.0,5.0,90.0,-9999.0,'1111122,1111122,1111122' 
COMPS,ioos:station:USF.COMPS:C12:1,2013-09-05T19:29:00Z,27.4980,-83.7220,3.0,3.0,70.0,-9999.0,'1111122,1111122,1111122' 
COMPS,ioos:station:USF.COMPS:C12:1,2013-09-05T20:29:00Z,27.4980,-83.7220,3.0,3.0,70.0,-9999.0,'1111122,1111122,1111122' 
COMPS,ioos:station:USF.COMPS:C12:1,2013-09-05T21:29:00Z,27.4980,-83.7220,3.0,2.0,40.0,-9999.0,'1111122,1111122,1111122' 
COMPS,ioos:station:USF.COMPS:C12:1,2013-09-05T23:29:00Z,27.4980,-83.7220,3.0,3.0,20.0,-9999.0,'1111122,1111122,1111122' 
COMPS,ioos:station:USF.COMPS:C12:1,2013-09-06T00:29:00Z,27.4980,-83.7220,3.0,5.0,70.0,-9999.0,'1111122,1111122,1111122' 
COMPS,ioos:station:USF.COMPS:C12:1,2013-09-06T01:29:00Z,27.4980,-83.7220,3.0,6.0,70.0,-9999.0,'1111122,1111122,1111122' 
COMPS,ioos:station:USF.COMPS:C12:1,2013-09-06T02:29:00Z,27.4980,-83.7220,3.0,4.0,70.0,-9999.0,'1111122,1111122,1111122' 
COMPS,ioos:station:USF.COMPS:C12:1,2013-09-06T03:29:00Z,27.4980,-83.7220,3.0,3.0,60.0,-9999.0,'1111122,1111122,1111122' 
COMPS,ioos:station:USF.COMPS:C12:1,2013-09-06T05:29:00Z,27.4980,-83.7220,3.0,3.0,40.0,-9999.0,'1111122,1111122,1111122' 
COMPS,ioos:station:USF.COMPS:C12:1,2013-09-06T06:29:00Z,27.4980,-83.7220,3.0,4.0,40.0,-9999.0,'1111122,1111122,1111122' 
COMPS,ioos:station:USF.COMPS:C12:1,2013-09-06T07:29:00Z,27.4980,-83.7220,3.0,4.0,40.0,-9999.0,'1111122,1111122,1111122' 
COMPS,ioos:station:USF.COMPS:C12:1,2013-09-06T08:29:00Z,27.4980,-83.7220,3.0,5.0,40.0,-9999.0,'1111122,1111122,1111122' 
COMPS,ioos:station:USF.COMPS:C12:1,2013-09-06T09:29:00Z,27.4980,-83.7220,3.0,6.0,70.0,-9999.0,'1111122,1111122,1111122' 
COMPS,ioos:station:USF.COMPS:C12:1,2013-09-06T10:29:00Z,27.4980,-83.7220,3.0,5.0,80.0,-9999.0,'1111122,1111122,1111122' 
COMPS,ioos:station:USF.COMPS:C12:1,2013-09-06T11:29:00Z,27.4980,-83.7220,3.0,5.0,80.0,-9999.0,'1111122,1111122,1111122' 
COMPS,ioos:station:USF.COMPS:C12:1,2013-09-06T12:29:00Z,27.4980,-83.7220,3.0,6.0,90.0,-9999.0,'1111122,1111122,1111122' 
COMPS,ioos:station:USF.COMPS:C12:1,2013-09-06T13:29:00Z,27.4980,-83.7220,3.0,4.0,110.0,-9999.0,'1111122,1111122,1111122' 
COMPS,ioos:station:USF.COMPS:C12:1,2013-09-06T14:29:00Z,27.4980,-83.7220,3.0,3.0,100.0,-9999.0,'1111122,1111122,1111122' 
COMPS,ioos:station:USF.COMPS:C12:1,2013-09-06T15:29:00Z,27.4980,-83.7220,3.0,3.0,110.0,-9999.0,'1111122,1111122,1111122' 
COMPS,ioos:station:USF.COMPS:C12:1,2013-09-06T16:29:00Z,27.4980,-83.7220,3.0,2.0,100.0,-9999.0,'1111122,1111122,1111122' 
COMPS,ioos:station:USF.COMPS:C12:1,2013-09-06T17:29:00Z,27.4980,-83.7220,3.0,3.0,110.0,-9999.0,'1111122,1111122,1111122' 
COMPS,ioos:station:USF.COMPS:C12:1,2013-09-06T18:29:00Z,27.4980,-83.7220,3.0,2.0,100.0,-9999.0,'1111122,1111122,1111122' 
COMPS,ioos:station:USF.COMPS:C12:1,2013-09-06T19:29:00Z,27.4980,-83.7220,3.0,1.0,100.0,-9999.0,'1111122,1111122,1111122' 
COMPS,ioos:station:USF.COMPS:C12:1,2013-09-06T20:29:00Z,27.4980,-83.7220,3.0,1.0,40.0,-9999.0,'1111122,1111122,1111122' 
COMPS,ioos:station:USF.COMPS:C12:1,2013-09-06T21:29:00Z,27.4980,-83.7220,3.0,3.0,350.0,-9999.0,'1111122,1111122,1111122' 
COMPS,ioos:station:USF.COMPS:C12:1,2013-09-06T22:29:00Z,27.4980,-83.7220,3.0,3.0,360.0,-9999.0,'1111122,1111122,1111122' 
COMPS,ioos:station:USF.COMPS:C12:1,2013-09-06T23:29:00Z,27.4980,-83.7220,3.0,5.0,360.0,-9999.0,'1111122,1111122,1111122' 
COMPS,ioos:station:USF.COMPS:C12:1,2013-09-07T01:29:00Z,27.4980,-83.7220,3.0,11.0,80.0,-9999.0,'1111122,1111122,1111122' 
COMPS,ioos:station:USF.COMPS:C12:1,2013-09-07T02:29:00Z,27.4980,-83.7220,3.0,7.0,70.0,-9999.0,'1111122,1111122,1111122' 
COMPS,ioos:station:USF.COMPS:C12:1,2013-09-07T03:29:00Z,27.4980,-83.7220,3.0,8.0,80.0,-9999.0,'1111122,1111122,1111122' 
COMPS,ioos:station:USF.COMPS:C12:1,2013-09-07T05:29:00Z,27.4980,-83.7220,3.0,6.0,140.0,-9999.0,'1111122,1111122,1111122' 
COMPS,ioos:station:USF.COMPS:C12:1,2013-09-07T06:29:00Z,27.4980,-83.7220,3.0,5.0,130.0,-9999.0,'1111122,1111122,1111122' 
COMPS,ioos:station:USF.COMPS:C12:1,2013-09-07T07:29:00Z,27.4980,-83.7220,3.0,4.0,130.0,-9999.0,'1111122,1111122,1111122' 
COMPS,ioos:station:USF.COMPS:C12:1,2013-09-07T08:29:00Z,27.4980,-83.7220,3.0,3.0,110.0,-9999.0,'1111122,1111122,1111122' 
COMPS,ioos:station:USF.COMPS:C12:1,2013-09-07T09:29:00Z,27.4980,-83.7220,3.0,4.0,70.0,-9999.0,'1111122,1111122,1111122' 
COMPS,ioos:station:USF.COMPS:C12:1,2013-09-07T10:29:00Z,27.4980,-83.7220,3.0,7.0,40.0,-9999.0,'1111122,1111122,1111122' 
COMPS,ioos:station:USF.COMPS:C12:1,2013-09-07T11:29:00Z,27.4980,-83.7220,3.0,5.0,70.0,-9999.0,'1111122,1111122,1111122' 
COMPS,ioos:station:USF.COMPS:C12:1,2013-09-07T12:29:00Z,27.4980,-83.7220,3.0,5.0,50.0,-9999.0,'1111122,1111122,1111122' 
COMPS,ioos:station:USF.COMPS:C12:1,2013-09-07T13:29:00Z,27.4980,-83.7220,3.0,6.0,60.0,-9999.0,'1111122,1111122,1111122' 
COMPS,ioos:station:USF.COMPS:C12:1,2013-09-07T14:29:00Z,27.4980,-83.7220,3.0,6.0,60.0,-9999.0,'1111122,1111122,1111122' 
COMPS,ioos:station:USF.COMPS:C12:1,2013-09-07T15:29:00Z,27.4980,-83.7220,3.0,6.0,70.0,-9999.0,'1111122,1111122,1111122' 
COMPS,ioos:station:USF.COMPS:C12:1,2013-09-07T16:29:00Z,27.4980,-83.7220,3.0,4.0,90.0,-9999.0,'1111122,1111122,1111122' 
COMPS,ioos:station:USF.COMPS:C12:1,2013-09-07T17:29:00Z,27.4980,-83.7220,3.0,3.0,100.0,-9999.0,'1111122,1111122,1111122' 
COMPS,ioos:station:USF.COMPS:C12:1,2013-09-07T18:29:00Z,27.4980,-83.7220,3.0,3.0,80.0,-9999.0,'1111122,1111122,1111122' 
COMPS,ioos:station:USF.COMPS:C12:1,2013-09-07T19:29:00Z,27.4980,-83.7220,3.0,2.0,100.0,-9999.0,'1111122,1111122,1111122' 
COMPS,ioos:station:USF.COMPS:C12:1,2013-09-07T20:29:00Z,27.4980,-83.7220,3.0,2.0,20.0,-9999.0,'1111122,1111122,1111122' 
COMPS,ioos:station:USF.COMPS:C12:1,2013-09-07T21:29:00Z,27.4980,-83.7220,3.0,3.0,350.0,-9999.0,'1111122,1111122,1111122' 
COMPS,ioos:station:USF.COMPS:C12:1,2013-09-07T22:29:00Z,27.4980,-83.7220,3.0,4.0,360.0,-9999.0,'1111122,1111122,1111122' 
COMPS,ioos:station:USF.COMPS:C12:1,2013-09-07T23:29:00Z,27.4980,-83.7220,3.0,5.0,350.0,-9999.0,'1111122,1111122,1111122' 
COMPS,ioos:station:USF.COMPS:C12:1,2013-09-08T00:29:00Z,27.4980,-83.7220,3.0,5.0,360.0,-9999.0,'1111122,1111122,1111122' 
COMPS,ioos:station:USF.COMPS:C12:1,2013-09-08T01:29:00Z,27.4980,-83.7220,3.0,6.0,20.0,-9999.0,'1111122,1111122,1111122' 
COMPS,ioos:station:USF.COMPS:C12:1,2013-09-08T02:29:00Z,27.4980,-83.7220,3.0,6.0,30.0,-9999.0,'1111122,1111122,1111122' 
COMPS,ioos:station:USF.COMPS:C12:1,2013-09-08T03:29:00Z,27.4980,-83.7220,3.0,7.0,50.0,-9999.0,'1111122,1111122,1111122' 
COMPS,ioos:station:USF.COMPS:C12:1,2013-09-08T04:29:00Z,27.4980,-83.7220,3.0,7.0,50.0,-9999.0,'1111122,1111122,1111122' 
COMPS,ioos:station:USF.COMPS:C12:1,2013-09-08T05:29:00Z,27.4980,-83.7220,3.0,5.0,70.0,-9999.0,'1111122,1111122,1111122' 
COMPS,ioos:station:USF.COMPS:C12:1,2013-09-08T06:29:00Z,27.4980,-83.7220,3.0,6.0,50.0,-9999.0,'1111122,1111122,1111122' 
COMPS,ioos:station:USF.COMPS:C12:1,2013-09-08T07:29:00Z,27.4980,-83.7220,3.0,6.0,80.0,-9999.0,'1111122,1111122,1111122' 
COMPS,ioos:station:USF.COMPS:C12:1,2013-09-08T08:29:00Z,27.4980,-83.7220,3.0,7.0,80.0,-9999.0,'1111122,1111122,1111122' 
COMPS,ioos:station:USF.COMPS:C12:1,2013-09-08T09:29:00Z,27.4980,-83.7220,3.0,6.0,90.0,-9999.0,'1111122,1111122,1111122' 
COMPS,ioos:station:USF.COMPS:C12:1,2013-09-08T10:29:00Z,27.4980,-83.7220,3.0,6.0,80.0,-9999.0,'1111122,1111122,1111122' 
COMPS,ioos:station:USF.COMPS:C12:1,2013-09-08T11:29:00Z,27.4980,-83.7220,3.0,5.0,70.0,-9999.0,'1111122,1111122,1111122' 
COMPS,ioos:station:USF.COMPS:C12:1,2013-09-08T12:29:00Z,27.4980,-83.7220,3.0,5.0,60.0,-9999.0,'1111122,1111122,1111122' 
COMPS,ioos:station:USF.COMPS:C12:1,2013-09-08T13:29:00Z,27.4980,-83.7220,3.0,4.0,60.0,-9999.0,'1111122,1111122,1111122' 
COMPS,ioos:station:USF.COMPS:C12:1,2013-09-08T14:29:00Z,27.4980,-83.7220,3.0,5.0,70.0,-9999.0,'1111122,1111122,1111122' 
COMPS,ioos:station:USF.COMPS:C12:1,2013-09-08T16:29:00Z,27.4980,-83.7220,3.0,4.0,70.0,-9999.0,'1111122,1111122,1111122' 
COMPS,ioos:station:USF.COMPS:C12:1,2013-09-08T17:29:00Z,27.4980,-83.7220,3.0,3.0,70.0,-9999.0,'1111122,1111122,1111122' 
COMPS,ioos:station:USF.COMPS:C12:1,2013-09-08T18:29:00Z,27.4980,-83.7220,3.0,3.0,50.0,-9999.0,'1111122,1111122,1111122' 
COMPS,ioos:station:USF.COMPS:C12:1,2013-09-08T19:29:00Z,27.4980,-83.7220,3.0,3.0,40.0,-9999.0,'1111122,1111122,1111122' 
COMPS,ioos:station:USF.COMPS:C12:1,2013-09-08T20:29:00Z,27.4980,-83.7220,3.0,4.0,20.0,-9999.0,'1111122,1111122,1111122' 
COMPS,ioos:station:USF.COMPS:C12:1,2013-09-08T21:29:00Z,27.4980,-83.7220,3.0,4.0,10.0,-9999.0,'1111122,1111122,1111122' 
COMPS,ioos:station:USF.COMPS:C12:1,2013-09-08T22:29:00Z,27.4980,-83.7220,3.0,5.0,360.0,-9999.0,'1111122,1111122,1111122' 
COMPS,ioos:station:USF.COMPS:C12:1,2013-09-08T23:29:00Z,27.4980,-83.7220,3.0,5.0,10.0,-9999.0,'1111122,1111122,1111122' 
COMPS,ioos:station:USF.COMPS:C12:1,2013-09-09T00:29:00Z,27.4980,-83.7220,3.0,5.0,10.0,-9999.0,'1111122,1111122,1111122' 
COMPS,ioos:station:USF.COMPS:C12:1,2013-09-09T01:29:00Z,27.4980,-83.7220,3.0,6.0,10.0,-9999.0,'1111122,1111122,1111122' 
COMPS,ioos:station:USF.COMPS:C12:1,2013-09-09T02:29:00Z,27.4980,-83.7220,3.0,5.0,20.0,-9999.0,'1111122,1111122,1111122' 
COMPS,ioos:station:USF.COMPS:C12:1,2013-09-09T03:29:00Z,27.4980,-83.7220,3.0,6.0,20.0,-9999.0,'1111122,1111122,1111122' 
COMPS,ioos:station:USF.COMPS:C12:1,2013-09-09T04:29:00Z,27.4980,-83.7220,3.0,7.0,20.0,-9999.0,'1111122,1111122,1111122' 
COMPS,ioos:station:USF.COMPS:C12:1,2013-09-09T05:29:00Z,27.4980,-83.7220,3.0,9.0,110.0,-9999.0,'1111122,1111122,1111122' 
COMPS,ioos:station:USF.COMPS:C12:1,2013-09-09T06:29:00Z,27.4980,-83.7220,3.0,8.0,100.0,-9999.0,'1111122,1111122,1111122' 
COMPS,ioos:station:USF.COMPS:C12:1,2013-09-09T07:29:00Z,27.4980,-83.7220,3.0,6.0,100.0,-9999.0,'1111122,1111122,1111122' 
COMPS,ioos:station:USF.COMPS:C12:1,2013-09-09T08:29:00Z,27.4980,-83.7220,3.0,7.0,90.0,-9999.0,'1111122,1111122,1111122' 
COMPS,ioos:station:USF.COMPS:C12:1,2013-09-09T09:29:00Z,27.4980,-83.7220,3.0,7.0,90.0,-9999.0,'1111122,1111122,1111122' 
COMPS,ioos:station:USF.COMPS:C12:1,2013-09-09T10:29:00Z,27.4980,-83.7220,3.0,6.0,80.0,-9999.0,'1111122,1111122,1111122' 
COMPS,ioos:station:USF.COMPS:C12:1,2013-09-09T11:29:00Z,27.4980,-83.7220,3.0,6.0,80.0,-9999.0,'1111122,1111122,1111122' 
COMPS,ioos:station:USF.COMPS:C12:1,2013-09-09T12:29:00Z,27.4980,-83.7220,3.0,6.0,70.0,-9999.0,'1111122,1111122,1111122' 
COMPS,ioos:station:USF.COMPS:C12:1,2013-09-09T14:29:00Z,27.4980,-83.7220,3.0,6.0,70.0,-9999.0,'1111122,1111122,1111122' 
COMPS,ioos:station:USF.COMPS:C12:1,2013-09-09T15:29:00Z,27.4980,-83.7220,3.0,6.0,70.0,-9999.0,'1111122,1111122,1111122' 
COMPS,ioos:station:USF.COMPS:C12:1,2013-09-09T16:29:00Z,27.4980,-83.7220,3.0,5.0,70.0,-9999.0,'1111122,1111122,1111122' 
COMPS,ioos:station:USF.COMPS:C12:1,2013-09-09T17:29:00Z,27.4980,-83.7220,3.0,5.0,70.0,-9999.0,'1111122,1111122,1111122' 
COMPS,ioos:station:USF.COMPS:C12:1,2013-09-09T18:29:00Z,27.4980,-83.7220,3.0,5.0,70.0,-9999.0,'1111122,1111122,1111122' 
COMPS,ioos:station:USF.COMPS:C12:1,2013-09-09T19:29:00Z,27.4980,-83.7220,3.0,5.0,70.0,-9999.0,'1111122,1111122,1111122' 
COMPS,ioos:station:USF.COMPS:C12:1,2013-09-09T20:29:00Z,27.4980,-83.7220,3.0,4.0,60.0,-9999.0,'1111122,1111122,1111122' 
COMPS,ioos:station:USF.COMPS:C12:1,2013-09-09T21:29:00Z,27.4980,-83.7220,3.0,4.0,40.0,-9999.0,'1111122,1111122,1111122' 
COMPS,ioos:station:USF.COMPS:C12:1,2013-09-09T22:29:00Z,27.4980,-83.7220,3.0,4.0,10.0,-9999.0,'1111122,1111122,1111122' 
COMPS,ioos:station:USF.COMPS:C12:1,2013-09-09T23:29:00Z,27.4980,-83.7220,3.0,4.0,10.0,-9999.0,'1111122,1111122,1111122' 
COMPS,ioos:station:USF.COMPS:C12:1,2013-09-10T00:29:00Z,27.4980,-83.7220,3.0,5.0,20.0,-9999.0,'1111122,1111122,1111122' 
COMPS,ioos:station:USF.COMPS:C12:1,2013-09-10T01:29:00Z,27.4980,-83.7220,3.0,5.0,20.0,-9999.0,'1111122,1111122,1111122' 
COMPS,ioos:station:USF.COMPS:C12:1,2013-09-10T02:29:00Z,27.4980,-83.7220,3.0,6.0,30.0,-9999.0,'1111122,1111122,1111122' 
COMPS,ioos:station:USF.COMPS:C12:1,2013-09-10T03:29:00Z,27.4980,-83.7220,3.0,4.0,90.0,-9999.0,'1111122,1111122,1111122' 
COMPS,ioos:station:USF.COMPS:C12:1,2013-09-10T04:29:00Z,27.4980,-83.7220,3.0,6.0,70.0,-9999.0,'1111122,1111122,1111122' 
COMPS,ioos:station:USF.COMPS:C12:1,2013-09-10T05:29:00Z,27.4980,-83.7220,3.0,8.0,110.0,-9999.0,'1111122,1111122,1111122' 
COMPS,ioos:station:USF.COMPS:C12:1,2013-09-10T06:29:00Z,27.4980,-83.7220,3.0,9.0,90.0,-9999.0,'1111122,1111122,1111122' 
COMPS,ioos:station:USF.COMPS:C12:1,2013-09-10T07:29:00Z,27.4980,-83.7220,3.0,8.0,80.0,-9999.0,'1111122,1111122,1111122' 
COMPS,ioos:station:USF.COMPS:C12:1,2013-09-10T08:29:00Z,27.4980,-83.7220,3.0,7.0,80.0,-9999.0,'1111122,1111122,1111122' 
COMPS,ioos:station:USF.COMPS:C12:1,2013-09-10T09:29:00Z,27.4980,-83.7220,3.0,7.0,80.0,-9999.0,'1111122,1111122,1111122' 
COMPS,ioos:station:USF.COMPS:C12:1,2013-09-10T10:29:00Z,27.4980,-83.7220,3.0,7.0,80.0,-9999.0,'1111122,1111122,1111122' 
COMPS,ioos:station:USF.COMPS:C12:1,2013-09-10T11:29:00Z,27.4980,-83.7220,3.0,8.0,80.0,-9999.0,'1111122,1111122,1111122' 
COMPS,ioos:station:USF.COMPS:C12:1,2013-09-10T12:29:00Z,27.4980,-83.7220,3.0,7.0,90.0,-9999.0,'1111122,1111122,1111122' 
COMPS,ioos:station:USF.COMPS:C12:1,2013-09-10T13:29:00Z,27.4980,-83.7220,3.0,8.0,90.0,-9999.0,'1111122,1111122,1111122' 
COMPS,ioos:station:USF.COMPS:C12:1,2013-09-10T14:29:00Z,27.4980,-83.7220,3.0,8.0,90.0,-9999.0,'1111122,1111122,1111122' 
COMPS,ioos:station:USF.COMPS:C12:1,2013-09-10T15:29:00Z,27.4980,-83.7220,3.0,8.0,80.0,-9999.0,'1111122,1111122,1111122' 
COMPS,ioos:station:USF.COMPS:C12:1,2013-09-10T16:29:00Z,27.4980,-83.7220,3.0,7.0,80.0,-9999.0,'1111122,1111122,1111122' 
COMPS,ioos:station:USF.COMPS:C12:1,2013-09-10T17:29:00Z,27.4980,-83.7220,3.0,7.0,70.0,-9999.0,'1111122,1111122,1111122' 
COMPS,ioos:station:USF.COMPS:C12:1,2013-09-10T18:29:00Z,27.4980,-83.7220,3.0,7.0,70.0,-9999.0,'1111122,1111122,1111122' 
COMPS,ioos:station:USF.COMPS:C12:1,2013-09-10T19:29:00Z,27.4980,-83.7220,3.0,7.0,70.0,-9999.0,'1111122,1111122,1111122' 
COMPS,ioos:station:USF.COMPS:C12:1,2013-09-10T20:29:00Z,27.4980,-83.7220,3.0,6.0,50.0,-9999.0,'1111122,1111122,1111122' 
COMPS,ioos:station:USF.COMPS:C12:1,2013-09-10T21:29:00Z,27.4980,-83.7220,3.0,6.0,30.0,-9999.0,'1111122,1111122,1111122' 
COMPS,ioos:station:USF.COMPS:C12:1,2013-09-10T22:29:00Z,27.4980,-83.7220,3.0,7.0,20.0,-9999.0,'1111122,1111122,1111122' 
COMPS,ioos:station:USF.COMPS:C12:1,2013-09-11T00:29:00Z,27.4980,-83.7220,3.0,6.0,40.0,-9999.0,'1111122,1111122,1111122' 
COMPS,ioos:station:USF.COMPS:C12:1,2013-09-11T01:29:00Z,27.4980,-83.7220,3.0,9.0,80.0,-9999.0,'1111122,1111122,1111122' 
COMPS,ioos:station:USF.COMPS:C12:1,2013-09-11T02:29:00Z,27.4980,-83.7220,3.0,8.0,90.0,-9999.0,'1111122,1111122,1111122' 
COMPS,ioos:station:USF.COMPS:C12:1,2013-09-11T03:29:00Z,27.4980,-83.7220,3.0,9.0,90.0,-9999.0,'1111122,1111122,1111122' 
COMPS,ioos:station:USF.COMPS:C12:1,2013-09-11T04:29:00Z,27.4980,-83.7220,3.0,9.0,100.0,-9999.0,'1111122,1111122,1111122' 
COMPS,ioos:station:USF.COMPS:C12:1,2013-09-11T06:29:00Z,27.4980,-83.7220,3.0,8.0,80.0,-9999.0,'1111122,1111122,1111122' 
COMPS,ioos:station:USF.COMPS:C12:1,2013-09-11T07:29:00Z,27.4980,-83.7220,3.0,8.0,80.0,-9999.0,'1111122,1111122,1111122' 
COMPS,ioos:station:USF.COMPS:C12:1,2013-09-11T08:29:00Z,27.4980,-83.7220,3.0,8.0,70.0,-9999.0,'1111122,1111122,1111122' 
COMPS,ioos:station:USF.COMPS:C12:1,2013-09-11T09:29:00Z,27.4980,-83.7220,3.0,8.0,70.0,-9999.0,'1111122,1111122,1111122' 
COMPS,ioos:station:USF.COMPS:C12:1,2013-09-11T10:29:00Z,27.4980,-83.7220,3.0,8.0,70.0,-9999.0,'1111122,1111122,1111122' 
COMPS,ioos:station:USF.COMPS:C12:1,2013-09-11T11:29:00Z,27.4980,-83.7220,3.0,8.0,70.0,-9999.0,'1111122,1111122,1111122' 
COMPS,ioos:station:USF.COMPS:C12:1,2013-09-11T12:29:00Z,27.4980,-83.7220,3.0,8.0,70.0,-9999.0,'1111122,1111122,1111122' 
COMPS,ioos:station:USF.COMPS:C12:1,2013-09-11T13:29:00Z,27.4980,-83.7220,3.0,10.0,70.0,-9999.0,'1111122,1111122,1111122' 
COMPS,ioos:station:USF.COMPS:C12:1,2013-09-11T14:29:00Z,27.4980,-83.7220,3.0,10.0,70.0,-9999.0,'1111122,1111122,1111122' 
COMPS,ioos:station:USF.COMPS:C12:1,2013-09-11T15:29:00Z,27.4980,-83.7220,3.0,10.0,80.0,-9999.0,'1111122,1111122,1111122' 
COMPS,ioos:station:USF.COMPS:C12:1,2013-09-11T16:29:00Z,27.4980,-83.7220,3.0,9.0,80.0,-9999.0,'1111122,1111122,1111122' 
COMPS,ioos:station:USF.COMPS:C12:1,2013-09-11T17:29:00Z,27.4980,-83.7220,3.0,8.0,80.0,-9999.0,'1111122,1111122,1111122' 
COMPS,ioos:station:USF.COMPS:C12:1,2013-09-11T18:29:00Z,27.4980,-83.7220,3.0,7.0,70.0,-9999.0,'1111122,1111122,1111122' 
COMPS,ioos:station:USF.COMPS:C12:1,2013-09-11T19:29:00Z,27.4980,-83.7220,3.0,7.0,60.0,-9999.0,'1111122,1111122,1111122' 
COMPS,ioos:station:USF.COMPS:C12:1,2013-09-11T21:29:00Z,27.4980,-83.7220,3.0,5.0,100.0,-9999.0,'1111122,1111122,1111122' 
COMPS,ioos:station:USF.COMPS:C12:1,2013-09-11T22:29:00Z,27.4980,-83.7220,3.0,6.0,100.0,-9999.0,'1111122,1111122,1111122' 
COMPS,ioos:station:USF.COMPS:C12:1,2013-09-12T00:29:00Z,27.4980,-83.7220,3.0,6.0,120.0,-9999.0,'1111122,1111122,1111122' 
COMPS,ioos:station:USF.COMPS:C12:1,2013-09-12T01:29:00Z,27.4980,-83.7220,3.0,8.0,120.0,-9999.0,'1111122,1111122,1111122' 
COMPS,ioos:station:USF.COMPS:C12:1,2013-09-12T02:29:00Z,27.4980,-83.7220,3.0,6.0,130.0,-9999.0,'1111122,1111122,1111122' 
COMPS,ioos:station:USF.COMPS:C12:1,2013-09-12T03:29:00Z,27.4980,-83.7220,3.0,7.0,150.0,-9999.0,'1111122,1111122,1111122' 
COMPS,ioos:station:USF.COMPS:C12:1,2013-09-12T04:29:00Z,27.4980,-83.7220,3.0,7.0,140.0,-9999.0,'1111122,1111122,1111122' 
COMPS,ioos:station:USF.COMPS:C12:1,2013-09-12T05:29:00Z,27.4980,-83.7220,3.0,6.0,140.0,-9999.0,'1111122,1111122,1111122' 
COMPS,ioos:station:USF.COMPS:C12:1,2013-09-12T06:29:00Z,27.4980,-83.7220,3.0,6.0,160.0,-9999.0,'1111122,1111122,1111122' 
COMPS,ioos:station:USF.COMPS:C12:1,2013-09-12T07:29:00Z,27.4980,-83.7220,3.0,6.0,130.0,-9999.0,'1111122,1111122,1111122' 
COMPS,ioos:station:USF.COMPS:C12:1,2013-09-12T08:29:00Z,27.4980,-83.7220,3.0,8.0,160.0,-9999.0,'1111122,1111122,1111122' 
COMPS,ioos:station:USF.COMPS:C12:1,2013-09-12T09:29:00Z,27.4980,-83.7220,3.0,5.0,160.0,-9999.0,'1111122,1111122,1111122' 
COMPS,ioos:station:USF.COMPS:C12:1,2013-09-12T10:29:00Z,27.4980,-83.7220,3.0,1.0,210.0,-9999.0,'1111122,1111122,1111122' 
COMPS,ioos:station:USF.COMPS:C12:1,2013-09-12T11:29:00Z,27.4980,-83.7220,3.0,1.0,40.0,-9999.0,'1111122,1111122,1111122' 
COMPS,ioos:station:USF.COMPS:C12:1,2013-09-12T12:29:00Z,27.4980,-83.7220,3.0,7.0,120.0,-9999.0,'1111122,1111122,1111122' 
COMPS,ioos:station:USF.COMPS:C12:1,2013-09-12T13:29:00Z,27.4980,-83.7220,3.0,5.0,90.0,-9999.0,'1111122,1111122,1111122' 
COMPS,ioos:station:USF.COMPS:C12:1,2013-09-12T14:29:00Z,27.4980,-83.7220,3.0,4.0,90.0,-9999.0,'1111122,1111122,1111122' 